User made mazes table 2013

Below you can find all mazes made by visitors in a table.

Everyone can rate mazes by giving stars. You can do that two times: once during the maze and once after finishing the maze. The vote at the end of the maze counts for 4. So you have 5 votes in total. (You can't rate a maze you've made yourself).
You can choose one star (poor) up to 5 stars (excellent). You can find the average rating in this table.
You can also see the number of unique visitors who started the maze (column 'Starts') and the number of them who finished it (column 'Finished').
In the last column the successful finishes are represented by a percentage of the number of starts. This gives an indication of the difficulty of the maze. The lower the percentage, the more difficult the maze.

Look here for the table of official mazes.



2006 2007 2008 2009 2010 2011 2012 2013 2014 2015 2016 2017 2018 2019 2020 Pages: 1 2 3 4 5 6
Name maze
Sort ascending Sort descending
Maker
Sort ascending Sort descending
Description
 
Date made (CET)
Sort ascending Sort descending
Size
Sort ascending Sort descending
ratingratingratingratingrating
Sort ascending Sort descending
Starts
Sort ascending Sort descending
Finished
Sort ascending Sort descending
%
Sort ascending Sort descending
bgjvhjvhjbbghgh 2013-05-24 10:44:18 M 22 140
zoem winnerstongood luck2013-05-26 13:18:54 M 333 10110
vind jij de teekmanon 2013-05-28 11:15:51 M 1 60
klassendoolhoftaniMaze of the week (week 22)2013-05-29 10:53:58 M 333 420
Life of PiRuth Baker 2013-05-29 16:49:31 M 22 130
zonnig doolhofryan 2013-06-11 15:12:33 M 333 6116.7
Maikels en Renskes spookhuisMaikelGood luck!2013-06-11 16:05:36 M 4444 6116.7
MAZE JEORjerome boneta 2013-06-12 06:52:51 M 333 70
KatiaKatiaMaze of the week (week 24)2013-06-13 21:55:43 M 4444 350
Dwaalhof EddyDewi 2013-06-16 13:22:21 M 4444 60
2 jaar huwelijkmichael 2013-06-16 20:25:40 M 4444 110
duisternisdoolhofRoyeeeeeeeeeeeeeeeeeeeeeeeeeeeeeeeeeeeeeeeeeeeeeeeeeeeeeeeeeeeeeeeeeeee eeeeeeeeeeeeeeeeeeeeeeeeeeeeeeeeeeeeeeeeeeeeeeeeeeeeeeeeeeeeeeeeeeee eeeeeeeeeeeeeeeeeeeeeeeeeeeeeeeeeeeeeeeeeeeeeeeeeeeeeennnnnnnnnnnnnn nnnnnnnnnnnnnnnnnnnnnnnnnnnnnnnnnnnnnnnnnnnnnnnnnnnnnnnnnnnnnnnnnnnn nnnnnnnnnnnnnnnnnnnnnnnnnnnnnnnnnngggggggggggggggggggggggggggggggggg gggggggggggggggggggggggggggggggggggggggggggggggggggggggggggggggggggg ggggggggggggggggggggggggggggggggggggggggggggggggggggggggggggggggggggggggggg2013-06-21 09:30:41 M 4444 100
youtubeyoutube 2013-06-21 10:44:19 M 1 1218.3
PienolienoPien 2013-06-22 11:20:20 M 22 160
freeze doolhofboris 2013-06-25 13:07:27 M 4444 70
kunst van vliegmaggy 2013-06-25 16:03:11 M 22 80
jiojo 2013-06-26 11:54:42 M 333 1915.3
SJPKimberley 2013-06-26 21:54:05 M 55555 220
probeer het einde te halenBram en Jelle 2013-06-27 15:02:08 M 22 40
Adem zoekt EvaSiebe 2013-06-28 18:48:18 M 333 90
o yeahhelenathis is to try, this is my first time2013-06-28 21:02:23 M 333 150
doolhof die niet zo makkelijk isafnoefnoeMaze of the week (week 26)
"you got no key, find the exit"
2013-06-30 15:55:02 M 55555 1616.3
pakolientjechris 2013-07-01 12:40:39 M 22 130
Galaxy wayWillem Jan QuintensJust try...2013-07-01 17:49:02 M 4444 120
doolhofvakantiemarjan 2013-07-06 20:34:27 M 4444 90
Leonardo eemlandomit01 2013-07-02 14:35:57 M 4444 40
muhhahahahahhaahhajlieeee 2013-07-02 17:38:57 M 1 9222.2
johnjohn 2013-07-02 17:40:29 M 22 210
the twist mazejaysonthis is a short way just complete this2013-07-03 15:35:03 M 22 50
the twist but awesome mazejaysonMaze of the week (week 27)2013-07-03 15:42:13 M 55555 360
TempleOfries 2013-07-03 16:27:32 M 1 180
anneannethe maze is not very difficult2013-07-04 20:48:18 M 1 190
opzoek naar avondtuurjantien 2013-07-11 09:07:42 M 1 60
smylie doolhofjessica en leonardohe is funny2013-07-13 15:26:05 M 22 90
makkie maar langjael 2013-07-18 07:20:02 M 1 11218.2
DorrepaalDorrepaal 2013-07-19 21:55:13 M 333 150
superheldensara 2013-08-01 15:40:34 M 1 180
ijsjeelkethis is my first labyrinth hopely you like it! have fun! (my English is not perfect!)2013-08-09 19:11:40 M 1 130
KyleDelisa 2013-08-17 05:04:44 M 22 190
CHERmore 2013-08-20 03:43:29 M 333 220
fc utrechtlarissa 2013-08-20 15:35:48 M 1 110
Route vijfTutoren 2013-08-30 07:56:40 M 333 130
ChiroMyinsofie 2013-09-02 15:36:00 M 333 6511.5
BoonanzaDusty 2013-09-06 19:43:52 M 22 200
klj wolvertemklj wolvertem 2013-09-07 01:28:09 M 1 90
monarchychrishave fun guys2013-09-09 20:59:56 M 22 140
38karineHappy 38!2013-09-17 16:46:02 M 22 240
Zero BiokevinTo investigate the thinking of a dog and looking at the choices he makes to find the exit2013-09-18 16:08:58 M 333 110
hocyclub de sterrenkira 2013-10-02 11:56:54 M 4444 50
trivagokai roderick jan 2013-10-04 16:28:42 M 333 140
Pages: 1 2 3 4 5 6




Copyright © 2005 - 2019 VirtuWorld.net
All rights reserved